Location: Москва
(55.7518°N, 37.5952°E)
Time: 18:20:16
(UTC+03:00)

ISS - Pass Details

Date: 31 January 2021
Orbit: 417 x 422 km, 51.6° (Epoch: 18 May)

Event Time Altitude Azimuth Distance (km) Brightness Sun altitude
Rises 19:52:20 0° 273° (W) 2,377 1.5 -23.8°
Reaches altitude 10° 19:54:50 10° 255° (WSW) 1,511 0.0 -24.2°
Enters shadow 19:57:05 19° 214° (SSW) 1,082 -1.4 -24.5°
